Year,Month,Day,Hour,Minute,Value (Times are PST for temperature in C)
2016,08,14,00,00,17.50
2016,08,14,00,01,17.50
2016,08,14,00,02,17.50
2016,08,14,00,03,17.40
2016,08,14,00,04,17.40
2016,08,14,00,05,17.40
2016,08,14,00,06,17.40
2016,08,14,00,07,17.40
2016,08,14,00,08,17.40
2016,08,14,00,09,17.40
2016,08,14,00,10,17.30
2016,08,14,00,11,17.30
2016,08,14,00,12,17.30
2016,08,14,00,13,17.30
2016,08,14,00,14,17.30
2016,08,14,00,15,17.30
2016,08,14,00,16,17.30
2016,08,14,00,17,17.30
2016,08,14,00,18,17.30
2016,08,14,00,19,17.30
2016,08,14,00,20,17.30
2016,08,14,00,21,17.30
2016,08,14,00,22,17.30
2016,08,14,00,23,17.30
2016,08,14,00,24,17.30
2016,08,14,00,25,17.30
2016,08,14,00,26,17.30
2016,08,14,00,27,17.30
2016,08,14,00,28,17.30
2016,08,14,00,29,17.30
2016,08,14,00,30,17.30
2016,08,14,00,31,17.20
2016,08,14,00,32,17.20
2016,08,14,00,33,17.20
2016,08,14,00,34,17.20
2016,08,14,00,35,17.20
2016,08,14,00,36,17.10
2016,08,14,00,37,17.10
2016,08,14,00,38,17.10
2016,08,14,00,39,17.10
2016,08,14,00,40,17.10
2016,08,14,00,41,17.00
2016,08,14,00,42,17.00
2016,08,14,00,43,17.00
2016,08,14,00,44,17.00
2016,08,14,00,45,17.00
2016,08,14,00,46,17.00
2016,08,14,00,47,17.00
2016,08,14,00,48,17.10
2016,08,14,00,49,17.10
2016,08,14,00,50,17.10
2016,08,14,00,51,17.20
2016,08,14,00,52,17.20
2016,08,14,00,53,17.20
2016,08,14,00,54,17.20
2016,08,14,00,55,17.20
2016,08,14,00,56,17.20
2016,08,14,00,57,17.20
2016,08,14,00,58,17.30
2016,08,14,00,59,17.30
2016,08,14,01,00,17.30
2016,08,14,01,01,17.20
2016,08,14,01,02,17.20
2016,08,14,01,03,17.20
2016,08,14,01,04,17.20
2016,08,14,01,05,17.20
2016,08,14,01,06,17.20
2016,08,14,01,07,17.20
2016,08,14,01,08,17.20
2016,08,14,01,09,17.20
2016,08,14,01,10,17.10
2016,08,14,01,11,17.10
2016,08,14,01,12,17.10
2016,08,14,01,13,17.10
2016,08,14,01,14,17.10
2016,08,14,01,15,17.00
2016,08,14,01,16,17.00
2016,08,14,01,17,17.00
2016,08,14,01,18,17.00
2016,08,14,01,19,17.00
2016,08,14,01,20,17.00
2016,08,14,01,21,17.00
2016,08,14,01,22,16.90
2016,08,14,01,23,16.90
2016,08,14,01,24,16.90
2016,08,14,01,25,16.80
2016,08,14,01,26,16.80
2016,08,14,01,27,16.80
2016,08,14,01,28,16.70
2016,08,14,01,29,16.70
2016,08,14,01,30,16.70
2016,08,14,01,31,16.70
2016,08,14,01,32,16.70
2016,08,14,01,33,16.70
2016,08,14,01,34,16.70
2016,08,14,01,35,16.70
2016,08,14,01,36,16.60
2016,08,14,01,37,16.60
2016,08,14,01,38,16.60
2016,08,14,01,39,16.60
2016,08,14,01,40,16.60
2016,08,14,01,41,16.60
2016,08,14,01,42,16.50
2016,08,14,01,43,16.40
2016,08,14,01,44,16.40
2016,08,14,01,45,16.40
2016,08,14,01,46,16.40
2016,08,14,01,47,16.40
2016,08,14,01,48,16.40
2016,08,14,01,49,16.40
2016,08,14,01,50,16.40
2016,08,14,01,51,16.30
2016,08,14,01,52,16.30
2016,08,14,01,53,16.30
2016,08,14,01,54,16.30
2016,08,14,01,55,16.20
2016,08,14,01,56,16.20
2016,08,14,01,57,16.20
2016,08,14,01,58,16.20
2016,08,14,01,59,16.20
2016,08,14,02,00,16.20
2016,08,14,02,01,16.20
2016,08,14,02,02,16.10
2016,08,14,02,03,16.10
2016,08,14,02,04,16.10
2016,08,14,02,05,16.10
2016,08,14,02,06,16.10
2016,08,14,02,07,16.10
2016,08,14,02,08,16.10
2016,08,14,02,09,16.10
2016,08,14,02,10,16.10
2016,08,14,02,11,16.10
2016,08,14,02,12,16.10
2016,08,14,02,13,16.00
2016,08,14,02,14,15.90
2016,08,14,02,15,15.90
2016,08,14,02,16,15.90
2016,08,14,02,17,15.90
2016,08,14,02,18,15.90
2016,08,14,02,19,15.90
2016,08,14,02,20,15.80
2016,08,14,02,21,15.80
2016,08,14,02,22,15.80
2016,08,14,02,23,15.80
2016,08,14,02,24,15.80
2016,08,14,02,25,15.80
2016,08,14,02,26,15.70
2016,08,14,02,27,15.70
2016,08,14,02,28,15.70
2016,08,14,02,29,15.70
2016,08,14,02,30,15.70
2016,08,14,02,31,15.70
2016,08,14,02,32,15.70
2016,08,14,02,33,15.70
2016,08,14,02,34,15.70
2016,08,14,02,35,15.70
2016,08,14,02,36,15.70
2016,08,14,02,37,15.60
2016,08,14,02,38,15.60
2016,08,14,02,39,15.60
2016,08,14,02,40,15.60
2016,08,14,02,41,15.60
2016,08,14,02,42,15.60
2016,08,14,02,43,15.60
2016,08,14,02,44,15.50
2016,08,14,02,45,15.50
2016,08,14,02,46,15.50
2016,08,14,02,47,15.50
2016,08,14,02,48,15.50
2016,08,14,02,49,15.50
2016,08,14,02,50,15.50
2016,08,14,02,51,15.40
2016,08,14,02,52,15.40
2016,08,14,02,53,15.40
2016,08,14,02,54,15.40
2016,08,14,02,55,15.30
2016,08,14,02,56,15.30
2016,08,14,02,57,15.30
2016,08,14,02,58,15.30
2016,08,14,02,59,15.30
2016,08,14,03,00,15.30
2016,08,14,03,01,15.30
2016,08,14,03,02,15.30
2016,08,14,03,03,15.30
2016,08,14,03,04,15.30
2016,08,14,03,05,15.30
2016,08,14,03,06,15.30
2016,08,14,03,07,15.20
2016,08,14,03,08,15.20
2016,08,14,03,09,15.20
2016,08,14,03,10,15.20
2016,08,14,03,11,15.20
2016,08,14,03,12,15.20
2016,08,14,03,13,15.20
2016,08,14,03,14,15.10
2016,08,14,03,15,15.10
2016,08,14,03,16,15.10
2016,08,14,03,17,15.00
2016,08,14,03,18,15.00
2016,08,14,03,19,15.00
2016,08,14,03,20,15.00
2016,08,14,03,21,14.90
2016,08,14,03,22,14.90
2016,08,14,03,23,14.90
2016,08,14,03,24,14.90
2016,08,14,03,25,14.90
2016,08,14,03,26,14.90
2016,08,14,03,27,14.80
2016,08,14,03,28,14.80
2016,08,14,03,29,14.80
2016,08,14,03,30,14.80
2016,08,14,03,31,14.80
2016,08,14,03,32,14.80
2016,08,14,03,33,14.80
2016,08,14,03,34,14.80
2016,08,14,03,35,14.80
2016,08,14,03,36,14.80
2016,08,14,03,37,14.80
2016,08,14,03,38,14.80
2016,08,14,03,39,14.80
2016,08,14,03,40,14.80
2016,08,14,03,41,14.80
2016,08,14,03,42,14.80
2016,08,14,03,43,14.70
2016,08,14,03,44,14.70
2016,08,14,03,45,14.70
2016,08,14,03,46,14.70
2016,08,14,03,47,14.70
2016,08,14,03,48,14.70
2016,08,14,03,49,14.60
2016,08,14,03,50,14.60
2016,08,14,03,51,14.60
2016,08,14,03,52,14.60
2016,08,14,03,53,14.60
2016,08,14,03,54,14.60
2016,08,14,03,55,14.60
2016,08,14,03,56,14.60
2016,08,14,03,57,14.60
2016,08,14,03,58,14.60
2016,08,14,03,59,14.50
2016,08,14,04,00,14.50
2016,08,14,04,01,14.50
2016,08,14,04,02,14.50
2016,08,14,04,03,14.50
2016,08,14,04,04,14.50
2016,08,14,04,05,14.50
2016,08,14,04,06,14.40
2016,08,14,04,07,14.40
2016,08,14,04,08,14.40
2016,08,14,04,09,14.30
2016,08,14,04,10,14.30
2016,08,14,04,11,14.30
2016,08,14,04,12,14.30
2016,08,14,04,13,14.30
2016,08,14,04,14,14.20
2016,08,14,04,15,14.20
2016,08,14,04,16,14.20
2016,08,14,04,17,14.20
2016,08,14,04,18,14.20
2016,08,14,04,19,14.20
2016,08,14,04,20,14.20
2016,08,14,04,21,14.20
2016,08,14,04,22,14.20
2016,08,14,04,23,14.20
2016,08,14,04,24,14.20
2016,08,14,04,25,14.20
2016,08,14,04,26,14.20
2016,08,14,04,27,14.20
2016,08,14,04,28,14.20
2016,08,14,04,29,14.10
2016,08,14,04,30,14.10
2016,08,14,04,31,14.10
2016,08,14,04,32,14.10
2016,08,14,04,33,14.10
2016,08,14,04,34,14.10
2016,08,14,04,35,14.10
2016,08,14,04,36,14.10
2016,08,14,04,37,14.10
2016,08,14,04,38,14.10
2016,08,14,04,39,14.10
2016,08,14,04,40,14.10
2016,08,14,04,41,14.00
2016,08,14,04,42,14.00
2016,08,14,04,43,14.10
2016,08,14,04,44,14.10
2016,08,14,04,45,14.10
2016,08,14,04,46,14.10
2016,08,14,04,47,14.00
2016,08,14,04,48,14.00
2016,08,14,04,49,14.00
2016,08,14,04,50,14.00
2016,08,14,04,51,14.00
2016,08,14,04,52,14.00
2016,08,14,04,53,14.00
2016,08,14,04,54,14.00
2016,08,14,04,55,14.00
2016,08,14,04,56,14.00
2016,08,14,04,57,14.00
2016,08,14,04,58,14.00
2016,08,14,04,59,14.00
2016,08,14,05,00,13.90
2016,08,14,05,01,13.90
2016,08,14,05,02,13.90
2016,08,14,05,03,13.90
2016,08,14,05,04,13.90
2016,08,14,05,05,13.90
2016,08,14,05,06,13.90
2016,08,14,05,07,13.90
2016,08,14,05,08,13.90
2016,08,14,05,09,13.80
2016,08,14,05,10,13.80
2016,08,14,05,11,13.80
2016,08,14,05,12,13.80
2016,08,14,05,13,13.80
2016,08,14,05,14,13.80
2016,08,14,05,15,13.80
2016,08,14,05,16,13.80
2016,08,14,05,17,13.80
2016,08,14,05,18,13.70
2016,08,14,05,19,13.70
2016,08,14,05,20,13.70
2016,08,14,05,21,13.70
2016,08,14,05,22,13.70
2016,08,14,05,23,13.70
2016,08,14,05,24,13.70
2016,08,14,05,25,13.70
2016,08,14,05,26,13.70
2016,08,14,05,27,13.70
2016,08,14,05,28,13.70
2016,08,14,05,29,13.70
2016,08,14,05,30,13.70
2016,08,14,05,31,13.70
2016,08,14,05,32,13.70
2016,08,14,05,33,13.70
2016,08,14,05,34,13.70
2016,08,14,05,35,13.70
2016,08,14,05,36,13.70
2016,08,14,05,37,13.70
2016,08,14,05,38,13.70
2016,08,14,05,39,13.70
2016,08,14,05,40,13.70
2016,08,14,05,41,13.70
2016,08,14,05,42,13.70
2016,08,14,05,43,13.70
2016,08,14,05,44,13.70
2016,08,14,05,45,13.70
2016,08,14,05,46,13.70
2016,08,14,05,47,13.70
2016,08,14,05,48,13.70
2016,08,14,05,49,13.70
2016,08,14,05,50,13.70
2016,08,14,05,51,13.70
2016,08,14,05,52,13.60
2016,08,14,05,53,13.60
2016,08,14,05,54,13.60
2016,08,14,05,55,13.60
2016,08,14,05,56,13.60
2016,08,14,05,57,13.60
2016,08,14,05,58,13.60
2016,08,14,05,59,13.50
2016,08,14,06,00,13.50
2016,08,14,06,01,13.50
2016,08,14,06,02,13.50
2016,08,14,06,03,13.50
2016,08,14,06,04,13.50
2016,08,14,06,05,13.50
2016,08,14,06,06,13.50
2016,08,14,06,07,13.50
2016,08,14,06,08,13.50
2016,08,14,06,09,13.50
2016,08,14,06,10,13.50
2016,08,14,06,11,13.50
2016,08,14,06,12,13.50
2016,08,14,06,13,13.50
2016,08,14,06,14,13.40
2016,08,14,06,15,13.40
2016,08,14,06,16,13.40
2016,08,14,06,17,13.40
2016,08,14,06,18,13.40
2016,08,14,06,19,13.40
2016,08,14,06,20,13.40
2016,08,14,06,21,13.30
2016,08,14,06,22,13.30
2016,08,14,06,23,13.30
2016,08,14,06,24,13.30
2016,08,14,06,25,13.30
2016,08,14,06,26,13.30
2016,08,14,06,27,13.30
2016,08,14,06,28,13.30
2016,08,14,06,29,13.30
2016,08,14,06,30,13.30
2016,08,14,06,31,13.30
2016,08,14,06,32,13.30
2016,08,14,06,33,13.30
2016,08,14,06,34,13.40
2016,08,14,06,35,13.40
2016,08,14,06,36,13.40
2016,08,14,06,37,13.50
2016,08,14,06,38,13.50
2016,08,14,06,39,13.50
2016,08,14,06,40,13.50
2016,08,14,06,41,13.60
2016,08,14,06,42,13.60
2016,08,14,06,43,13.60
2016,08,14,06,44,13.70
2016,08,14,06,45,13.70
2016,08,14,06,46,13.70
2016,08,14,06,47,13.70
2016,08,14,06,48,13.80
2016,08,14,06,49,13.80
2016,08,14,06,50,13.90
2016,08,14,06,51,13.90
2016,08,14,06,52,13.90
2016,08,14,06,53,14.00
2016,08,14,06,54,14.00
2016,08,14,06,55,14.00
2016,08,14,06,56,14.10
2016,08,14,06,57,14.10
2016,08,14,06,58,14.20
2016,08,14,06,59,14.20
2016,08,14,07,00,14.30
2016,08,14,07,01,14.40
2016,08,14,07,02,14.40
2016,08,14,07,03,14.50
2016,08,14,07,04,14.50
2016,08,14,07,05,14.60
2016,08,14,07,06,14.60
2016,08,14,07,07,14.70
2016,08,14,07,08,14.80
2016,08,14,07,09,14.80
2016,08,14,07,10,14.90
2016,08,14,07,11,15.00
2016,08,14,07,12,15.10
2016,08,14,07,13,15.10
2016,08,14,07,14,15.20
2016,08,14,07,15,15.30
2016,08,14,07,16,15.40
2016,08,14,07,17,15.40
2016,08,14,07,18,15.50
2016,08,14,07,19,15.60
2016,08,14,07,20,15.70
2016,08,14,07,21,15.70
2016,08,14,07,22,15.80
2016,08,14,07,23,15.90
2016,08,14,07,24,16.00
2016,08,14,07,25,16.10
2016,08,14,07,26,16.10
2016,08,14,07,27,16.20
2016,08,14,07,28,16.20
2016,08,14,07,29,16.30
2016,08,14,07,30,16.30
2016,08,14,07,31,16.40
2016,08,14,07,32,16.40
2016,08,14,07,33,16.50
2016,08,14,07,34,16.60
2016,08,14,07,35,16.60
2016,08,14,07,36,16.60
2016,08,14,07,37,16.60
2016,08,14,07,38,16.70
2016,08,14,07,39,16.70
2016,08,14,07,40,16.70
2016,08,14,07,41,16.80
2016,08,14,07,42,16.80
2016,08,14,07,43,16.90
2016,08,14,07,44,16.90
2016,08,14,07,45,17.00
2016,08,14,07,46,17.10
2016,08,14,07,47,17.10
2016,08,14,07,48,17.10
2016,08,14,07,49,17.20
2016,08,14,07,50,17.20
2016,08,14,07,51,17.20
2016,08,14,07,52,17.30
2016,08,14,07,53,17.30
2016,08,14,07,54,17.30
2016,08,14,07,55,17.30
2016,08,14,07,56,17.30
2016,08,14,07,57,17.30
2016,08,14,07,58,17.30
2016,08,14,07,59,17.30
2016,08,14,08,00,17.30
2016,08,14,08,01,17.30
2016,08,14,08,02,17.30
2016,08,14,08,03,17.20
2016,08,14,08,04,17.20
2016,08,14,08,05,17.20
2016,08,14,08,06,17.20
2016,08,14,08,07,17.20
2016,08,14,08,08,17.30
2016,08,14,08,09,17.30
2016,08,14,08,10,17.30
2016,08,14,08,11,17.30
2016,08,14,08,12,17.40
2016,08,14,08,13,17.40
2016,08,14,08,14,17.40
2016,08,14,08,15,17.40
2016,08,14,08,16,17.50
2016,08,14,08,17,17.50
2016,08,14,08,18,17.60
2016,08,14,08,19,17.60
2016,08,14,08,20,17.70
2016,08,14,08,21,17.80
2016,08,14,08,22,17.80
2016,08,14,08,23,17.90
2016,08,14,08,24,17.90
2016,08,14,08,25,17.90
2016,08,14,08,26,17.90
2016,08,14,08,27,18.00
2016,08,14,08,28,18.00
2016,08,14,08,29,18.10
2016,08,14,08,30,18.10
2016,08,14,08,31,18.10
2016,08,14,08,32,18.00
2016,08,14,08,33,17.90
2016,08,14,08,34,17.90
2016,08,14,08,35,18.00
2016,08,14,08,36,18.10
2016,08,14,08,37,18.10
2016,08,14,08,38,18.20
2016,08,14,08,39,18.20
2016,08,14,08,40,18.20
2016,08,14,08,41,18.30
2016,08,14,08,42,18.40
2016,08,14,08,43,18.40
2016,08,14,08,44,18.40
2016,08,14,08,45,18.40
2016,08,14,08,46,18.50
2016,08,14,08,47,18.50
2016,08,14,08,48,18.40
2016,08,14,08,49,18.30
2016,08,14,08,50,18.30
2016,08,14,08,51,18.30
2016,08,14,08,52,18.30
2016,08,14,08,53,18.40
2016,08,14,08,54,18.40
2016,08,14,08,55,18.50
2016,08,14,08,56,18.50
2016,08,14,08,57,18.60
2016,08,14,08,58,18.60
2016,08,14,08,59,18.60
2016,08,14,09,00,18.60
2016,08,14,09,01,18.60
2016,08,14,09,02,18.70
2016,08,14,09,03,18.70
2016,08,14,09,04,18.70
2016,08,14,09,05,18.80
2016,08,14,09,06,18.90
2016,08,14,09,07,19.00
2016,08,14,09,08,19.10
2016,08,14,09,09,19.20
2016,08,14,09,10,19.20
2016,08,14,09,11,19.30
2016,08,14,09,12,19.30
2016,08,14,09,13,19.30
2016,08,14,09,14,19.30
2016,08,14,09,15,19.30
2016,08,14,09,16,19.30
2016,08,14,09,17,19.30
2016,08,14,09,18,19.30
2016,08,14,09,19,19.40
2016,08,14,09,20,19.40
2016,08,14,09,21,19.30
2016,08,14,09,22,19.30
2016,08,14,09,23,19.30
2016,08,14,09,24,19.10
2016,08,14,09,25,19.10
2016,08,14,09,26,19.10
2016,08,14,09,27,19.10
2016,08,14,09,28,19.20
2016,08,14,09,29,19.30
2016,08,14,09,30,19.30
2016,08,14,09,31,19.30
2016,08,14,09,32,19.30
2016,08,14,09,33,19.30
2016,08,14,09,34,19.30
2016,08,14,09,35,19.30
2016,08,14,09,36,19.40
2016,08,14,09,37,19.50
2016,08,14,09,38,19.50
2016,08,14,09,39,19.50
2016,08,14,09,40,19.60
2016,08,14,09,41,19.70
2016,08,14,09,42,19.80
2016,08,14,09,43,19.90
2016,08,14,09,44,20.00
2016,08,14,09,45,20.00
2016,08,14,09,46,19.90
2016,08,14,09,47,19.90
2016,08,14,09,48,19.90
2016,08,14,09,49,19.90
2016,08,14,09,50,19.90
2016,08,14,09,51,19.90
2016,08,14,09,52,19.90
2016,08,14,09,53,19.90
2016,08,14,09,54,19.90
2016,08,14,09,55,20.00
2016,08,14,09,56,20.20
2016,08,14,09,57,20.20
2016,08,14,09,58,20.30
2016,08,14,09,59,20.40
2016,08,14,10,00,20.50
2016,08,14,10,01,20.60
2016,08,14,10,02,20.70
2016,08,14,10,03,20.70
2016,08,14,10,04,20.70
2016,08,14,10,05,20.70
2016,08,14,10,06,20.70
2016,08,14,10,07,20.80
2016,08,14,10,08,20.80
2016,08,14,10,09,20.80
2016,08,14,10,10,20.70
2016,08,14,10,11,20.60
2016,08,14,10,12,20.40
2016,08,14,10,13,20.10
2016,08,14,10,14,20.00
2016,08,14,10,15,19.90
2016,08,14,10,16,19.80
2016,08,14,10,17,19.60
2016,08,14,10,18,19.50
2016,08,14,10,19,19.40
2016,08,14,10,20,19.30
2016,08,14,10,21,19.20
2016,08,14,10,22,19.10
2016,08,14,10,23,19.10
2016,08,14,10,24,19.10
2016,08,14,10,25,19.10
2016,08,14,10,26,19.10
2016,08,14,10,27,19.10
2016,08,14,10,28,19.20
2016,08,14,10,29,19.30
2016,08,14,10,30,19.30
2016,08,14,10,31,19.30
2016,08,14,10,32,19.30
2016,08,14,10,33,19.40
2016,08,14,10,34,19.40
2016,08,14,10,35,19.50
2016,08,14,10,36,19.50
2016,08,14,10,37,19.50
2016,08,14,10,38,19.40
2016,08,14,10,39,19.40
2016,08,14,10,40,19.50
2016,08,14,10,41,19.70
2016,08,14,10,42,19.80
2016,08,14,10,43,19.90
2016,08,14,10,44,20.00
2016,08,14,10,45,20.20
2016,08,14,10,46,20.20
2016,08,14,10,47,20.20
2016,08,14,10,48,20.20
2016,08,14,10,49,20.10
2016,08,14,10,50,20.00
2016,08,14,10,51,19.90
2016,08,14,10,52,19.90
2016,08,14,10,53,19.90
2016,08,14,10,54,19.90
2016,08,14,10,55,19.90
2016,08,14,10,56,19.90
2016,08,14,10,57,20.10
2016,08,14,10,58,20.20
2016,08,14,10,59,20.20
2016,08,14,11,00,20.30
2016,08,14,11,01,20.40
2016,08,14,11,02,20.40
2016,08,14,11,03,20.40
2016,08,14,11,04,20.50
2016,08,14,11,05,20.70
2016,08,14,11,06,20.80
2016,08,14,11,07,20.90
2016,08,14,11,08,20.90
2016,08,14,11,09,20.80
2016,08,14,11,10,20.90
2016,08,14,11,11,21.10
2016,08,14,11,12,21.20
2016,08,14,11,13,21.30
2016,08,14,11,14,21.30
2016,08,14,11,15,21.30
2016,08,14,11,16,21.30
2016,08,14,11,17,21.30
2016,08,14,11,18,21.40
2016,08,14,11,19,21.50
2016,08,14,11,20,21.60
2016,08,14,11,21,21.60
2016,08,14,11,22,21.60
2016,08,14,11,23,21.60
2016,08,14,11,24,21.50
2016,08,14,11,25,21.40
2016,08,14,11,26,21.30
2016,08,14,11,27,21.30
2016,08,14,11,28,21.20
2016,08,14,11,29,21.10
2016,08,14,11,30,20.90
2016,08,14,11,31,20.80
2016,08,14,11,32,20.70
2016,08,14,11,33,20.60
2016,08,14,11,34,20.60
2016,08,14,11,35,20.60
2016,08,14,11,36,20.60
2016,08,14,11,37,20.60
2016,08,14,11,38,20.70
2016,08,14,11,39,20.70
2016,08,14,11,40,20.90
2016,08,14,11,41,21.00
2016,08,14,11,42,21.00
2016,08,14,11,43,21.20
2016,08,14,11,44,21.30
2016,08,14,11,45,21.30
2016,08,14,11,46,21.30
2016,08,14,11,47,21.20
2016,08,14,11,48,21.20
2016,08,14,11,49,21.10
2016,08,14,11,50,21.00
2016,08,14,11,51,20.90
2016,08,14,11,52,20.80
2016,08,14,11,53,20.70
2016,08,14,11,54,20.60
2016,08,14,11,55,20.60
2016,08,14,11,56,20.60
2016,08,14,11,57,20.70
2016,08,14,11,58,20.80
2016,08,14,11,59,20.80
2016,08,14,12,00,20.90
2016,08,14,12,01,21.00
2016,08,14,12,02,21.10
2016,08,14,12,03,21.10
2016,08,14,12,04,21.10
2016,08,14,12,05,21.20
2016,08,14,12,06,21.20
2016,08,14,12,07,21.30
2016,08,14,12,08,21.30
2016,08,14,12,09,21.40
2016,08,14,12,10,21.40
2016,08,14,12,11,21.50
2016,08,14,12,12,21.60
2016,08,14,12,13,21.60
2016,08,14,12,14,21.60
2016,08,14,12,15,21.70
2016,08,14,12,16,21.70
2016,08,14,12,17,21.80
2016,08,14,12,18,21.80
2016,08,14,12,19,21.80
2016,08,14,12,20,21.80
2016,08,14,12,21,21.80
2016,08,14,12,22,21.70
2016,08,14,12,23,21.60
2016,08,14,12,24,21.60
2016,08,14,12,25,21.60
2016,08,14,12,26,21.60
2016,08,14,12,27,21.60
2016,08,14,12,28,21.50
2016,08,14,12,29,21.40
2016,08,14,12,30,21.30
2016,08,14,12,31,21.30
2016,08,14,12,32,21.30
2016,08,14,12,33,21.30
2016,08,14,12,34,21.30
2016,08,14,12,35,21.30
2016,08,14,12,36,21.30
2016,08,14,12,37,21.50
2016,08,14,12,38,21.60
2016,08,14,12,39,21.70
2016,08,14,12,40,21.80
2016,08,14,12,41,21.90
2016,08,14,12,42,22.00
2016,08,14,12,43,22.00
2016,08,14,12,44,21.90
2016,08,14,12,45,21.90
2016,08,14,12,46,22.00
2016,08,14,12,47,22.10
2016,08,14,12,48,22.10
2016,08,14,12,49,22.20
2016,08,14,12,50,22.30
2016,08,14,12,51,22.40
2016,08,14,12,52,22.50
2016,08,14,12,53,22.60
2016,08,14,12,54,22.70
2016,08,14,12,55,22.80
2016,08,14,12,56,22.90
2016,08,14,12,57,22.90
2016,08,14,12,58,22.90
2016,08,14,12,59,23.00
2016,08,14,13,00,23.10
2016,08,14,13,01,23.20
2016,08,14,13,02,23.20
2016,08,14,13,03,23.30
2016,08,14,13,04,23.30
2016,08,14,13,05,23.30
2016,08,14,13,06,23.30
2016,08,14,13,07,23.30
2016,08,14,13,08,23.30
2016,08,14,13,09,23.30
2016,08,14,13,10,23.30
2016,08,14,13,11,23.20
2016,08,14,13,12,23.10
2016,08,14,13,13,23.10
2016,08,14,13,14,23.00
2016,08,14,13,15,22.90
2016,08,14,13,16,22.90
2016,08,14,13,17,22.90
2016,08,14,13,18,22.90
2016,08,14,13,19,22.90
2016,08,14,13,20,22.90
2016,08,14,13,21,22.90
2016,08,14,13,22,22.90
2016,08,14,13,23,22.90
2016,08,14,13,24,22.90
2016,08,14,13,25,22.90
2016,08,14,13,26,23.00
2016,08,14,13,27,23.10
2016,08,14,13,28,23.20
2016,08,14,13,29,23.20
2016,08,14,13,30,23.10
2016,08,14,13,31,23.10
2016,08,14,13,32,23.10
2016,08,14,13,33,23.20
2016,08,14,13,34,23.20
2016,08,14,13,35,23.30
2016,08,14,13,36,23.30
2016,08,14,13,37,23.30
2016,08,14,13,38,23.40
2016,08,14,13,39,23.50
2016,08,14,13,40,23.60
2016,08,14,13,41,23.70
2016,08,14,13,42,23.80
2016,08,14,13,43,23.80
2016,08,14,13,44,23.90
2016,08,14,13,45,23.90
2016,08,14,13,46,23.80
2016,08,14,13,47,23.70
2016,08,14,13,48,23.70
2016,08,14,13,49,23.70
2016,08,14,13,50,23.70
2016,08,14,13,51,23.70
2016,08,14,13,52,23.70
2016,08,14,13,53,23.70
2016,08,14,13,54,23.60
2016,08,14,13,55,23.40
2016,08,14,13,56,23.30
2016,08,14,13,57,23.20
2016,08,14,13,58,23.20
2016,08,14,13,59,23.20
2016,08,14,14,00,23.20
2016,08,14,14,01,23.30
2016,08,14,14,02,23.30
2016,08,14,14,03,23.30
2016,08,14,14,04,23.30
2016,08,14,14,05,23.30
2016,08,14,14,06,23.30
2016,08,14,14,07,23.30
2016,08,14,14,08,23.30
2016,08,14,14,09,23.30
2016,08,14,14,10,23.30
2016,08,14,14,11,23.30
2016,08,14,14,12,23.30
2016,08,14,14,13,23.30
2016,08,14,14,14,23.30
2016,08,14,14,15,23.30
2016,08,14,14,16,23.20
2016,08,14,14,17,23.10
2016,08,14,14,18,23.00
2016,08,14,14,19,22.80
2016,08,14,14,20,22.70
2016,08,14,14,21,22.60
2016,08,14,14,22,22.60
2016,08,14,14,23,22.70
2016,08,14,14,24,22.70
2016,08,14,14,25,22.80
2016,08,14,14,26,22.80
2016,08,14,14,27,22.90
2016,08,14,14,28,22.90
2016,08,14,14,29,22.90
2016,08,14,14,30,22.70
2016,08,14,14,31,22.60
2016,08,14,14,32,22.50
2016,08,14,14,33,22.50
2016,08,14,14,34,22.50
2016,08,14,14,35,22.30
2016,08,14,14,36,22.20
2016,08,14,14,37,22.10
2016,08,14,14,38,22.10
2016,08,14,14,39,22.10
2016,08,14,14,40,22.10
2016,08,14,14,41,22.20
2016,08,14,14,42,22.30
2016,08,14,14,43,22.60
2016,08,14,14,44,22.70
2016,08,14,14,45,22.80
2016,08,14,14,46,22.90
2016,08,14,14,47,22.90
2016,08,14,14,48,23.00
2016,08,14,14,49,23.10
2016,08,14,14,50,23.20
2016,08,14,14,51,23.30
2016,08,14,14,52,23.20
2016,08,14,14,53,23.20
2016,08,14,14,54,23.30
2016,08,14,14,55,23.30
2016,08,14,14,56,23.30
2016,08,14,14,57,23.30
2016,08,14,14,58,23.30
2016,08,14,14,59,23.10
2016,08,14,15,00,22.90
2016,08,14,15,01,22.90
2016,08,14,15,02,22.70
2016,08,14,15,03,22.60
2016,08,14,15,04,22.70
2016,08,14,15,05,22.70
2016,08,14,15,06,22.70
2016,08,14,15,07,22.70
2016,08,14,15,08,22.60
2016,08,14,15,09,22.40
2016,08,14,15,10,22.40
2016,08,14,15,11,22.30
2016,08,14,15,12,22.30
2016,08,14,15,13,22.30
2016,08,14,15,14,22.30
2016,08,14,15,15,22.20
2016,08,14,15,16,22.10
2016,08,14,15,17,22.10
2016,08,14,15,18,22.10
2016,08,14,15,19,22.20
2016,08,14,15,20,22.30
2016,08,14,15,21,22.40
2016,08,14,15,22,22.40
2016,08,14,15,23,22.50
2016,08,14,15,24,22.60
2016,08,14,15,25,22.60
2016,08,14,15,26,22.60
2016,08,14,15,27,22.60
2016,08,14,15,28,22.60
2016,08,14,15,29,22.60
2016,08,14,15,30,22.70
2016,08,14,15,31,22.70
2016,08,14,15,32,22.60
2016,08,14,15,33,22.50
2016,08,14,15,34,22.50
2016,08,14,15,35,22.50
2016,08,14,15,36,22.40
2016,08,14,15,37,22.30
2016,08,14,15,38,22.20
2016,08,14,15,39,22.20
2016,08,14,15,40,22.20
2016,08,14,15,41,22.20
2016,08,14,15,42,22.10
2016,08,14,15,43,22.00
2016,08,14,15,44,21.90
2016,08,14,15,45,21.90
2016,08,14,15,46,21.80
2016,08,14,15,47,21.80
2016,08,14,15,48,21.80
2016,08,14,15,49,21.60
2016,08,14,15,50,21.50
2016,08,14,15,51,21.30
2016,08,14,15,52,21.20
2016,08,14,15,53,21.10
2016,08,14,15,54,21.00
2016,08,14,15,55,20.90
2016,08,14,15,56,20.90
2016,08,14,15,57,21.00
2016,08,14,15,58,20.90
2016,08,14,15,59,20.80
2016,08,14,16,00,20.70
2016,08,14,16,01,20.60
2016,08,14,16,02,20.50
2016,08,14,16,03,20.50
2016,08,14,16,04,20.60
2016,08,14,16,05,20.70
2016,08,14,16,06,20.80
2016,08,14,16,07,20.90
2016,08,14,16,08,21.00
2016,08,14,16,09,21.00
2016,08,14,16,10,21.00
2016,08,14,16,11,20.90
2016,08,14,16,12,20.80
2016,08,14,16,13,20.80
2016,08,14,16,14,20.80
2016,08,14,16,15,20.80
2016,08,14,16,16,20.90
2016,08,14,16,17,21.00
2016,08,14,16,18,21.10
2016,08,14,16,19,21.10
2016,08,14,16,20,21.20
2016,08,14,16,21,21.30
2016,08,14,16,22,21.30
2016,08,14,16,23,21.20
2016,08,14,16,24,21.00
2016,08,14,16,25,20.90
2016,08,14,16,26,20.80
2016,08,14,16,27,20.70
2016,08,14,16,28,20.40
2016,08,14,16,29,20.20
2016,08,14,16,30,20.10
2016,08,14,16,31,20.00
2016,08,14,16,32,20.00
2016,08,14,16,33,20.00
2016,08,14,16,34,20.10
2016,08,14,16,35,20.10
2016,08,14,16,36,20.00
2016,08,14,16,37,19.90
2016,08,14,16,38,19.90
2016,08,14,16,39,19.70
2016,08,14,16,40,19.70
2016,08,14,16,41,19.60
2016,08,14,16,42,19.60
2016,08,14,16,43,19.60
2016,08,14,16,44,19.60
2016,08,14,16,45,19.70
2016,08,14,16,46,19.70
2016,08,14,16,47,19.60
2016,08,14,16,48,19.50
2016,08,14,16,49,19.30
2016,08,14,16,50,19.10
2016,08,14,16,51,19.00
2016,08,14,16,52,18.90
2016,08,14,16,53,18.80
2016,08,14,16,54,18.70
2016,08,14,16,55,18.70
2016,08,14,16,56,18.70
2016,08,14,16,57,18.70
2016,08,14,16,58,18.80
2016,08,14,16,59,18.80
2016,08,14,17,00,18.70
2016,08,14,17,01,18.70
2016,08,14,17,02,18.70
2016,08,14,17,03,18.70
2016,08,14,17,04,18.70
2016,08,14,17,05,18.70
2016,08,14,17,06,18.60
2016,08,14,17,07,18.50
2016,08,14,17,08,18.50
2016,08,14,17,09,18.50
2016,08,14,17,10,18.50
2016,08,14,17,11,18.40
2016,08,14,17,12,18.40
2016,08,14,17,13,18.40
2016,08,14,17,14,18.40
2016,08,14,17,15,18.40
2016,08,14,17,16,18.40
2016,08,14,17,17,18.50
2016,08,14,17,18,18.50
2016,08,14,17,19,18.60